Regional Weather Roundup
Issued by NWS Northern Indiana

Home | Current Version | Previous Version | Graphics & Text | Print | Product List | Glossary On
Versions: 1 2 3 4 5 6 7 8 9 10 11 12 13 14 15 16 17 18 19 20 21 22 23 24 25 26 27 28 29 30 31 32 33 34 35 36 37 38 39 40 41 42 43 44 45 46 47 48 49 50
000
ASUS43 KIWX 260910
RWRIWX

KIWX WEATHER ROUNDUP
NATIONAL WEATHER SERVICE NORTHERN INDIANA
400 AM EST FRI DEC 26 2014

NOTE: "FAIR" INDICATES FEW OR NO CLOUDS BELOW 12,000 FEET WITH NO
SIGNIFICANT WEATHER AND/OR OBSTRUCTIONS TO VISIBILITY.

* THESE STATIONS ARE NOT UNDER NWS QUALITY CONTROL. THEY ALSO MAY NOT
  REPORT WEATHER SUCH AS PRECIPITATION OR FOG.

INZ001>027-261000-
NORTHERN INDIANA

CITY           SKY/WX    TMP DP  RH WIND       PRES   REMARKS
GARY*          CLEAR     38  30  72 S8        30.03F
VALPARAISO     CLEAR     34  30  85 S8        30.05F WCI  27
MICHIGAN CITY* PTCLDY    36  30  80 S8G16     30.04F
LAPORTE*       PTCLDY    36  33  90 S8        30.05F
KNOX*          CLEAR     34  29  80 S12       30.05F WCI  26
SOUTH BEND     NOT AVBL
GOSHEN         CLEAR     35  31  85 S10       30.08F WCI  27
MONTICELLO*    CLEAR     35  32  88 S9        30.07F WCI  28
LOGANSPORT*    CLEAR     34  30  86 S12       30.10F WCI  25
ROCHESTER*     CLEAR     37  34  87 S7        30.09F
WARSAW*        CLEAR     34  32  93 S6        30.09F WCI  29
ANGOLA*        CLEAR     32  30  93 S8        30.09F WCI  25
FORT WAYNE     CLEAR     32  30  92 S8        30.14S WCI  25
HUNTINGTON*    CLEAR     34  32  93 S6        30.12F WCI  29
PERU/GRISSOM   CLEAR     35  35 100 S12G17    30.10F WCI  27
MARION*        CLEAR     33  31  91 S13       30.13F WCI  24

$$
INZ028>050-261000-
CENTRAL INDIANA

CITY           SKY/WX    TMP DP  RH WIND       PRES   REMARKS
LAFAYETTE      CLEAR     35  31  85 S6        30.10S WCI  30
KOKOMO*        CLEAR     34  28  80 S13       30.12F WCI  25
MUNCIE*        CLEAR     34  30  85 S9        30.14F WCI  27
INDIANAPOLIS   CLEAR     31  29  92 S9        30.15R WCI  23

$$
MIZ043>046-050>051-056>058-064>065-071>073-077>080-261000-
SOUTHWEST LOWER MICHIGAN

CITY           SKY/WX    TMP DP  RH WIND       PRES   REMARKS
BATTLE CREEK   CLOUDY    36  31  82 S10       30.07F
BENTON HARBOR  MOCLDY    36  32  85 S8        30.03F
COLDWATER*     PTCLDY    35  31  87 MISG      30.09F
HILLSDALE*     MOCLDY    33  32  99 S7        30.10F WCI  26
HOLLAND        CLOUDY    38  32  79 S9        30.04F
GRAND RAPIDS   CLOUDY    34  30  85 S8        30.05F WCI  27
KALAMAZOO      MOCLDY    35  31  85 S9        30.07F WCI  28
STURGIS*       PTCLDY    32  30  93 S5        30.08F WCI  27
THREE RIVERS*  FAIR      34  31  89 S6        30.09S WCI  29

$$
OHZ001>008-015>018-024>025-261000-
NORTHWEST OHIO

CITY           SKY/WX    TMP DP  RH WIND       PRES   REMARKS
WAUSEON*       FAIR      32  30  93 S8        30.15S WCI  25
DEFIANCE       CLEAR     33  29  85 S7        30.16R WCI  27
FINDLAY        CLEAR     31  27  85 S7        30.17R WCI  24
TOLEDO EXPRESS PTCLDY    30  28  92 S5        30.16R WCI  25
TOLEDO METCALF PTCLDY    30  27  88 S7        30.18R WCI  23
LIMA           CLEAR     35  30  82 S9        30.17R WCI  28

$$
AND FOR LAKE MICHIGAN COASTAL AND OPEN LAKE BUOY OBSERVATIONS

STATION/POSITION TEMP    WIND        PRES    VSBY  WAVE
                 AIR SEA DIR/SP/G                  HT/PER
                 (F)     (DEG/KT/KT) (MB)    (MI)  (FT/S)
CALUMET HARBOR    37     170/  9/ 15 1015.1F
MICHIGAN CITY     37     150/ 15/ 20   N/A
SAINT JOSEPH      38     140/  4/ 10 1016.9F

$$
&&



USA.gov is the U.S. government's official web portal to all federal, state and local government web resources and services.